Cahokia, IL

5:59 PM CST on December 15, 2019 (GMT -0600)
Saint Louis Downtown

Weather History for KCPS - October, 2019

Change the Weather History Date:

Wednesday, October 30, 2019

  Actual Average Record
Temperature  
Mean Temperature 40 °F -  
Max Temperature 43 °F 63 °F 88 °F (1950)
Min Temperature 37 °F 47 °F 30 °F (2005)
Degree Days  
Heating Degree Days 26    
Moisture  
Dew Point 37 °F    
Average Humidity 92    
Maximum Humidity 96    
Minimum Humidity 89    
Precipitation  
Precipitation 0.37 in - - ()
Sea Level Pressure  
Sea Level Pressure 30.08 in    
Wind  
Wind Speed 10 mph (North)    
Max Wind Speed 13 mph    
Max Gust Speed 24 mph    
Visibility 7 miles    
Events Rain    
Averages and records for this station are not official NWS values.
T = Trace of Precipitation, MM = Missing Value Source: NWS Daily Summary

Daily Weather History Graph

Daily Weather History Graph

Search for Another Location

Airport or City:

Astronomy

Oct. 30, 2019 Rise Set
Actual Time 7:24 AM CDT 6:03 PM CDT
Civil Twilight 6:57 AM CDT 6:30 PM CDT
Nautical Twilight 6:26 AM CDT 7:01 PM CDT
Astronomical Twilight 5:55 AM CDT 7:32 PM CDT
Moon 10:06 AM CDT (10/30) 8:12 PM CDT (10/30)
Length of Visible Light 11h 32m
Length of Day
10h 38m
Waxing Crescent, 9% of the Moon is Illuminated
Oct 30
Waxing Crescent
Nov 4
First Quarter
Nov 12
Full
Nov 19
Last Quarter
Nov 26
New

Hourly Weather History & Observations

Time (CDT) Temp. Windchill Dew Point Humidity Pressure Visibility Wind Dir Wind Speed Gust Speed Precip Events Conditions
12:00 AM 39.0 °F 32.8 °F 37.0 °F 93% 30.24 in 10.0 mi North 9.2 mph - 0.00 in Rain Light Rain
12:24 AM 39.0 °F 32.8 °F 37.0 °F 93% 30.24 in 4.0 mi North 9.2 mph - 0.04 in Rain Rain
12:53 AM 39.0 °F 31.8 °F 36.0 °F 89% 30.23 in 6.0 mi North 11.5 mph - 0.07 in Rain Light Rain
1:09 AM 39.0 °F 32.3 °F 36.0 °F 89% 30.21 in 10.0 mi NNE 10.4 mph - 0.01 in Rain Light Rain
1:53 AM 39.0 °F 32.8 °F 36.0 °F 89% 30.19 in 10.0 mi NE 9.2 mph - 0.01 in   Overcast
2:53 AM 39.0 °F 32.3 °F 36.0 °F 89% 30.17 in 5.0 mi NNE 10.4 mph - 0.00 in Rain Light Rain
3:53 AM 37.9 °F 31.5 °F 36.0 °F 93% 30.17 in 8.0 mi North 9.2 mph - 0.04 in Rain Light Rain
4:53 AM 39.0 °F 31.8 °F 36.0 °F 89% 30.18 in 8.0 mi North 11.5 mph - 0.03 in Rain Light Rain
5:53 AM 39.0 °F 31.4 °F 37.0 °F 93% 30.16 in 9.0 mi NNE 12.7 mph - 0.01 in   Overcast
6:53 AM 39.0 °F 33.4 °F 37.0 °F 93% 30.14 in 3.0 mi NNE 8.1 mph - 0.01 in Rain Light Rain
7:53 AM 39.0 °F 32.3 °F 37.9 °F 96% 30.15 in 2.5 mi North 10.4 mph - 0.00 in Rain Light Rain
8:12 AM 39.0 °F 34.0 °F 37.9 °F 96% 30.14 in 1.8 mi North 6.9 mph - 0.00 in Rain Light Rain
8:53 AM 39.0 °F 31.8 °F 37.0 °F 93% 30.13 in 2.5 mi North 11.5 mph - 0.00 in Rain Light Rain
9:00 AM 39.0 °F 31.8 °F 37.0 °F 93% 30.12 in 4.0 mi NNE 11.5 mph - 0.00 in Rain Light Rain
9:53 AM 39.9 °F 34.5 °F 37.9 °F 93% 30.10 in 10.0 mi ENE 8.1 mph - 0.00 in   Overcast
10:53 AM 42.1 °F 38.4 °F 39.0 °F 89% 30.09 in 6.0 mi North 5.8 mph - 0.09 in Rain Light Rain
11:53 AM 42.1 °F 36.1 °F 39.0 °F 89% 30.09 in 10.0 mi North 10.4 mph - 0.01 in Rain Light Rain
12:53 PM 42.1 °F 36.6 °F 39.9 °F 92% 30.07 in 10.0 mi NNW 9.2 mph - 0.00 in   Overcast
2:16 PM 41.0 °F 34.7 °F 39.0 °F 93% 30.01 in 7.0 mi North 10.4 mph - N/A   Overcast
2:53 PM 41.0 °F 33.9 °F 39.0 °F 93% 30.02 in 4.0 mi NNW 12.7 mph - N/A   Overcast
3:53 PM 41.0 °F 34.7 °F 39.0 °F 93% 30.02 in 2.5 mi NNW 10.4 mph - N/A   Overcast
4:53 PM 39.9 °F 32.9 °F 37.9 °F 93% 30.04 in 2.5 mi NNW 11.5 mph - N/A   Overcast
5:00 PM 39.9 °F 32.5 °F 37.9 °F 93% 30.02 in 6.0 mi NNW 12.7 mph - N/A   Overcast
5:53 PM 39.9 °F 32.5 °F 37.9 °F 93% 29.99 in 4.0 mi North 12.7 mph - N/A   Overcast
6:53 PM 39.9 °F 33.4 °F 37.0 °F 89% 30.01 in 10.0 mi North 10.4 mph - N/A   Overcast
7:53 PM 39.9 °F 33.4 °F 37.0 °F 89% 30.00 in 6.0 mi North 10.4 mph - 0.02 in Rain Light Rain
8:53 PM 39.0 °F 32.8 °F 37.9 °F 96% 30.00 in 4.0 mi NW 9.2 mph - 0.03 in Rain Light Rain
9:53 PM 39.0 °F 31.4 °F 37.0 °F 93% 29.99 in 10.0 mi NNW 12.7 mph - 0.02 in   Overcast
10:23 PM 39.0 °F 31.8 °F 37.0 °F 93% 29.98 in 10.0 mi NW 11.5 mph - N/A   Overcast
10:37 PM 39.0 °F 31.8 °F 36.0 °F 89% 29.98 in 10.0 mi NW 11.5 mph - N/A   Overcast
10:53 PM 39.0 °F 31.8 °F 36.0 °F 89% 29.97 in 9.0 mi NNW 11.5 mph - 0.00 in Rain Light Rain
11:26 PM 39.0 °F 32.3 °F 36.0 °F 89% 29.98 in 7.0 mi NW 10.4 mph 24.2 mph 0.01 in Rain Light Rain
11:53 PM 37.9 °F 30.9 °F 36.0 °F 93% 29.97 in 9.0 mi NW 10.4 mph - 0.03 in   Overcast